This is the latest recevied weather packets stored in our database for station/object EA4URC-10. If no packets are shown the sender has not sent any weather packets the latest 10 day(s).
| Time | Temp. | Humidity | Pressure | Rain* | Wind** | Luminosity | Snow |
|---|---|---|---|---|---|---|---|
| 1777824206 | 15.56° C | 70% | 1028.3 hPa | - | - | - | - |
| 1777822406 | 15.56° C | 75% | 1028.5 hPa | - | - | - | - |
| 1777821158 | 16.67° C | 88% | 1028.6 hPa | - | - | - | - |
| 1777820605 | 16.67° C | 88% | 1028.6 hPa | - | - | - | - |
| 1777818902 | 13.89° C | 98% | 1028.8 hPa | - | - | - | - |
| 1777818811 | 13.89° C | 98% | 1028.8 hPa | - | - | - | - |
| 1777817010 | 16.11° C | 91% | 1028.8 hPa | - | - | - | - |
| 1777815210 | 13.33° C | 100% | 1029.3 hPa | - | - | - | - |
| 1777813409 | 14.44° C | 100% | 1029.1 hPa | - | - | - | - |
| 1777811608 | 17.22° C | 100% | 1029.5 hPa | - | - | - | - |
| 1777809850 | 15° C | 100% | 1029.9 hPa | - | - | - | - |
| 1777809808 | 15° C | 100% | 1029.9 hPa | - | - | - | - |
| 1777808008 | 13.33° C | 100% | 1030.1 hPa | - | - | - | - |
| 1777806207 | 11.11° C | 100% | 1030.6 hPa | - | - | - | - |
| 1777804406 | 10° C | 100% | 1030.7 hPa | - | - | - | - |
| 1777802606 | 10° C | 100% | 1030.7 hPa | - | - | - | - |
| 1777800840 | 10.56° C | 100% | 1030.5 hPa | - | - | - | - |
| 1777800805 | 10.56° C | 100% | 1030.5 hPa | - | - | - | - |
| 1777799005 | 10.56° C | 100% | 1030.6 hPa | - | - | - | - |
| 1777797211 | 10° C | 100% | 1030.6 hPa | - | - | - | - |
| 1777795410 | 10° C | 100% | 1030.5 hPa | - | - | - | - |
| 1777793609 | 9.44° C | 100% | 1030.5 hPa | - | - | - | - |
| 1777791809 | 9.44° C | 100% | 1030.6 hPa | - | - | - | - |
| 1777790008 | 8.89° C | 100% | 1030.7 hPa | - | - | - | - |
| 1777788365 | 8.89° C | 100% | 1030.6 hPa | - | - | - | - |
* Rain since midnight (hover to see other rain measurements)
** Current wind speed in m/s (hover to see current wind gust speed)